Date String (YYYY-MM-DD hh:mm:ss) UTC,Instrument flags,Ambient pressure (hPa),Sample flow (lpm),Bypass flow (lpm),Sample temperature (°C),Ambient temperature (°C),ASC tube jacket temperature (°C),LED temperature (°C),Box temperature (°C),Sample RH (%),Span deviation,Mass concentration (μg/m³),Mass concentration (μg/m³),Mass concentration (μg/m³)
DateTimeUTC,F1_M11,P_M11,Q1_M11,Q2_M11,T1_M11,T2_M11,T3_M11,T4_M11,T5_M11,U1_M11,ZSPAN_M11,X2_M11,X0_M11,X1_M11
2021-09-30 01:00:00,,0829.4,5.00,0.00,30.5,29.6,00.0,39.7,32.3,20.1,0000.0,0003.90,0008.03,0003.39
2021-09-30 01:01:00,,0829.3,4.99,0.00,30.6,29.6,00.0,39.7,32.3,20.1,0000.0,0003.91,0008.17,0003.41
2021-09-30 01:02:00,,0829.0,5.01,0.00,30.6,29.6,00.0,39.7,32.3,20.2,0000.0,0003.89,0007.79,0003.42
2021-09-30 01:03:00,,0829.3,5.00,0.00,30.6,29.6,00.0,39.7,32.3,20.1,0000.2,0003.90,0007.83,0003.44
2021-09-30 01:04:00,,0829.3,5.00,0.00,30.6,29.6,00.0,39.7,32.3,20.3,0000.1,0003.87,0007.87,0003.45
2021-09-30 01:05:00,,0828.9,4.99,0.00,30.6,29.6,00.0,39.7,32.3,20.2,0000.4,0003.89,0007.89,0003.46
2021-09-30 01:06:00,,0828.8,5.00,0.00,30.6,29.6,00.0,39.7,32.3,20.3,0000.2,0003.94,0007.96,0003.49
2021-09-30 01:07:00,,0828.8,5.00,0.00,30.6,29.6,00.0,39.7,32.3,20.4,0000.2,0003.94,0007.88,0003.50
2021-09-30 01:08:00,,0828.9,5.00,0.00,30.6,29.6,00.0,39.7,32.3,20.5,-000.1,0003.96,0007.53,0003.51
2021-09-30 01:09:00,,0828.9,4.99,0.00,30.6,29.6,00.0,39.7,32.3,20.2,-000.0,0003.99,0008.15,0003.53
2021-09-30 01:10:00,,0828.9,5.01,0.00,30.6,29.6,00.0,39.7,32.3,20.3,0000.0,0003.99,0008.23,0003.54
2021-09-30 01:11:00,,0829.0,4.99,0.00,30.6,29.6,00.0,39.7,32.3,20.4,0000.0,0003.96,0008.17,0003.54
2021-09-30 01:12:00,,0829.0,5.00,0.00,30.6,29.6,00.0,39.7,32.3,20.2,0000.0,0003.98,0008.06,0003.53
2021-09-30 01:13:00,,0829.0,5.00,0.00,30.6,29.6,00.0,39.7,32.3,20.0,0000.0,0003.95,0007.97,0003.52
2021-09-30 01:14:00,,0829.1,5.00,0.00,30.6,29.6,00.0,39.7,32.3,20.0,0000.0,0003.95,0007.81,0003.51
2021-09-30 01:15:00,,0829.1,4.99,0.00,30.6,29.6,00.0,39.7,32.3,20.2,0000.0,0004.01,0007.94,0003.51
2021-09-30 01:16:00,,0829.1,4.99,0.00,30.6,29.6,00.0,39.7,32.3,20.5,0000.0,0004.02,0007.98,0003.51
2021-09-30 01:17:00,,0829.1,5.02,0.00,30.6,29.6,00.0,39.7,32.3,20.4,0000.0,0004.04,0008.90,0003.53
2021-09-30 01:18:00,,0829.2,5.00,0.00,30.6,29.6,00.0,39.7,32.2,20.4,0000.0,0004.08,0009.31,0003.53
2021-09-30 01:19:00,,0829.2,4.99,0.00,30.5,29.6,00.0,39.7,32.2,20.4,0000.0,0004.09,0009.18,0003.54
2021-09-30 01:20:00,,0829.2,5.01,0.00,30.5,29.6,00.0,39.7,32.2,20.2,0000.0,0004.08,0008.66,0003.53
2021-09-30 01:21:00,,0829.2,5.00,0.00,30.5,29.6,00.0,39.7,32.3,20.2,0000.0,0004.03,0008.48,0003.52
2021-09-30 01:22:00,,0829.2,5.00,0.00,30.5,29.6,00.0,39.7,32.2,20.1,0000.0,0004.03,0008.48,0003.51
2021-09-30 01:23:00,,0829.2,5.00,0.00,30.6,29.6,00.0,39.7,32.2,20.1,0000.0,0004.03,0008.50,0003.51
2021-09-30 01:24:00,,0829.2,5.00,0.00,30.6,29.6,00.0,39.7,32.2,20.1,0000.0,0004.03,0008.56,0003.50
2021-09-30 01:25:00,,0829.3,5.00,0.00,30.6,29.6,00.0,39.7,32.3,20.0,0000.0,0003.99,0008.49,0003.48
2021-09-30 01:26:00,,0829.3,4.99,0.00,30.6,29.6,00.0,39.7,32.3,20.0,0000.0,0003.93,0008.26,0003.46
2021-09-30 01:27:00,,0829.4,4.99,0.00,30.6,29.6,00.0,39.7,32.2,20.1,0000.0,0003.91,0008.27,0003.43
2021-09-30 01:28:00,,0829.3,5.00,0.00,30.6,29.6,00.0,39.7,32.2,20.0,0000.0,0003.87,0007.37,0003.39
2021-09-30 01:29:00,,0829.3,5.00,0.00,30.6,29.6,00.0,39.7,32.2,19.9,0000.0,0003.81,0006.83,0003.36
2021-09-30 01:30:00,,0829.4,5.00,0.00,30.6,29.6,00.0,39.7,32.3,19.9,0000.0,0003.78,0006.75,0003.33
2021-09-30 01:31:00,,0829.4,4.99,0.00,30.6,29.6,00.0,39.7,32.3,19.8,0000.0,0003.74,0006.67,0003.31
2021-09-30 01:32:00,,0829.4,5.00,0.00,30.6,29.7,00.0,39.7,32.3,19.8,0000.0,0003.73,0007.00,0003.29
2021-09-30 01:33:00,,0829.4,5.01,0.00,30.6,29.7,00.0,39.7,32.3,19.8,0000.0,0003.71,0007.27,0003.27
2021-09-30 01:34:00,,0829.4,4.99,0.00,30.6,29.7,00.0,39.7,32.3,19.9,0000.0,0003.69,0007.37,0003.26
2021-09-30 01:35:00,,0829.4,4.99,0.00,30.6,29.7,00.0,39.7,32.3,20.1,0000.0,0003.69,0007.57,0003.25
2021-09-30 01:36:00,,0829.4,5.02,0.00,30.6,29.7,00.0,39.7,32.3,20.3,0000.0,0003.69,0007.58,0003.23
2021-09-30 01:37:00,,0829.4,4.99,0.00,30.6,29.7,00.0,39.7,32.3,20.3,0000.0,0003.67,0007.62,0003.23
2021-09-30 01:38:00,,0829.5,5.00,0.00,30.6,29.7,00.0,39.7,32.3,20.2,0000.0,0003.63,0007.78,0003.21
2021-09-30 01:39:00,,0829.5,5.00,0.00,30.6,29.7,00.0,39.7,32.3,20.1,0000.0,0003.58,0007.55,0003.20
2021-09-30 01:40:00,,0829.5,4.98,0.00,30.6,29.6,00.0,39.7,32.3,20.0,0000.0,0003.57,0007.52,0003.19
2021-09-30 01:41:00,,0829.5,5.01,0.00,30.5,29.6,00.0,39.7,32.3,19.8,0000.0,0003.56,0007.52,0003.18
2021-09-30 01:42:00,,0829.5,5.00,0.00,30.5,29.6,00.0,39.7,32.2,19.9,0000.0,0003.56,0007.50,0003.16
2021-09-30 01:43:00,,0829.4,4.99,0.00,30.5,29.6,00.0,39.7,32.2,20.1,0000.0,0003.53,0007.23,0003.15
2021-09-30 01:44:00,,0829.5,5.01,0.00,30.5,29.6,00.0,39.7,32.3,20.1,0000.0,0003.48,0006.72,0003.12
2021-09-30 01:45:00,,0829.5,5.02,0.00,30.5,29.6,00.0,39.7,32.2,20.0,0000.0,0003.43,0006.40,0003.08
2021-09-30 01:46:00,,0829.5,4.98,0.00,30.5,29.6,00.0,39.7,32.2,20.0,0000.0,0003.42,0005.92,0003.06
2021-09-30 01:47:00,,0829.5,5.02,0.00,30.5,29.6,00.0,39.7,32.2,19.9,0000.0,0003.42,0007.08,0003.04
2021-09-30 01:48:00,,0829.5,4.99,0.00,30.5,29.6,00.0,39.7,32.2,19.9,0000.0,0003.40,0007.07,0003.01
2021-09-30 01:49:00,,0829.6,4.99,0.00,30.5,29.6,00.0,39.7,32.2,20.1,0000.0,0003.40,0006.50,0003.00
2021-09-30 01:50:00,,0829.8,4.99,0.00,30.5,29.6,00.0,39.7,32.2,20.1,0000.0,0003.43,0006.63,0003.00
2021-09-30 01:51:00,,0829.8,5.00,0.00,30.5,29.6,00.0,39.7,32.2,20.1,0000.0,0003.42,0006.83,0002.96
2021-09-30 01:52:00,,0829.9,5.00,0.00,30.5,29.6,00.0,39.6,32.2,20.2,0000.0,0003.42,0006.91,0002.96
2021-09-30 01:53:00,,0830.1,4.99,0.00,30.5,29.6,00.0,39.6,32.2,20.0,0000.0,0003.38,0006.94,0002.94
2021-09-30 01:54:00,,0830.0,5.01,0.00,30.5,29.6,00.0,39.6,32.2,19.7,0000.0,0003.36,0007.61,0002.93
2021-09-30 01:55:00,,0829.9,4.99,0.00,30.5,29.6,00.0,39.6,32.2,19.6,0000.0,0003.33,0007.95,0002.90
2021-09-30 01:56:00,,0829.9,5.00,0.00,30.5,29.6,00.0,39.6,32.2,19.6,0000.0,0003.31,0007.89,0002.87
2021-09-30 01:57:00,,0829.8,5.01,0.00,30.5,29.6,00.0,39.6,32.1,19.5,0000.0,0003.29,0007.91,0002.84
2021-09-30 01:58:00,,0829.9,5.00,0.00,30.5,29.6,00.0,39.6,32.2,19.5,0000.0,0003.27,0007.38,0002.80
2021-09-30 01:59:00,,0829.9,4.99,0.00,30.5,29.5,00.0,39.6,32.2,19.6,0000.0,0003.25,0007.06,0002.78
